Weather History for Kremmling, CO

Change the Weather History Date:

Saturday, May 18, 2013

  Actual Average (KEGE) Record (KEGE)
Temperature  
Mean Temperature 50 °F -  
Max Temperature 68 °F 70 °F 83 °F (1970)
Min Temperature 32 °F 34 °F 28 °F (1999)
Degree Days  
Heating Degree Days 15    
Moisture  
Dew Point 30 °F    
Average Humidity 57    
Maximum Humidity 87    
Minimum Humidity 18    
Precipitation  
Precipitation 0.03 in - - ()
Sea Level Pressure  
Sea Level Pressure 30.05 in    
Wind  
Wind Speed 4 mph (SW)    
Max Wind Speed 21 mph    
Max Gust Speed 38 mph    
Visibility 10 miles    
Events Rain , Thunderstorm    
Averages and records for this station are not official NWS values.
T = Trace of Precipitation, MM = Missing Value Source: NWS Daily Summary

Daily Weather History Graph

Daily Weather History Graph

Search for Another Location

Airport:

Trip Planner

Search our weather history database for the weather conditions in past years. The results will help you decide how hot, cold, wet, or windy it might be!

Date:

Astronomy

May. 18, 2013 Rise Set
Actual Time 5:47 AM MDT 8:17 PM MDT
Civil Twilight 5:16 AM MDT 8:48 PM MDT
Nautical Twilight 4:37 AM MDT 9:26 PM MDT
Astronomical Twilight 3:54 AM MDT 10:10 PM MDT
Moon 1:23 PM MDT (5/18) 1:41 AM MDT (5/18)
Length of Visible Light 15h 32m
Length of Day
14h 30m
First Quarter, 56% of the Moon is Illuminated
May 18
First Quarter
May 24
Full
May 31
Last Quarter
Jun 8
New
Jun 16
First Quarter

Hourly Weather History & Observations

Time (MDT) Temp. Windchill Dew Point Humidity Pressure Visibility Wind Dir Wind Speed Gust Speed Precip Events Conditions
12:15 AM 46.4 °F 45.2 °F 28.4 °F 50% 30.04 in 10.0 mi ESE 3.5 mph - N/A   Clear
12:36 AM 44.6 °F - 28.4 °F 53% 30.05 in 10.0 mi Calm Calm - N/A   Clear
12:55 AM 46.4 °F 45.2 °F 28.4 °F 50% 30.05 in 10.0 mi SE 3.5 mph - N/A   Clear
1:16 AM 41.0 °F - 28.4 °F 61% 30.06 in 10.0 mi Calm Calm - N/A   Clear
1:35 AM 41.0 °F - 26.6 °F 57% 30.05 in 10.0 mi Calm Calm - N/A   Clear
1:56 AM 41.0 °F 39.0 °F 28.4 °F 61% 30.06 in 10.0 mi SE 3.5 mph - N/A   Clear
2:16 AM 41.0 °F - 28.4 °F 61% 30.06 in 10.0 mi Calm Calm - N/A   Clear
2:35 AM 37.4 °F - 30.2 °F 75% 30.06 in 10.0 mi Calm Calm - N/A   Clear
2:56 AM 35.6 °F 32.8 °F 30.2 °F 81% 30.06 in 10.0 mi SE 3.5 mph - N/A   Clear
3:16 AM 35.6 °F - 28.4 °F 75% 30.07 in 10.0 mi Calm Calm - N/A   Clear
3:35 AM 35.6 °F - 28.4 °F 75% 30.07 in 10.0 mi Calm Calm - N/A   Clear
3:56 AM 35.6 °F - 30.2 °F 81% 30.07 in 10.0 mi Calm Calm - N/A   Clear
4:16 AM 35.6 °F - 28.4 °F 75% 30.08 in 10.0 mi Calm Calm - N/A   Clear
4:36 AM 35.6 °F - 28.4 °F 75% 30.08 in 10.0 mi Calm Calm - N/A   Clear
4:56 AM 33.8 °F - 28.4 °F 81% 30.09 in 10.0 mi Calm Calm - N/A   Clear
5:16 AM 33.8 °F - 26.6 °F 75% 30.10 in 10.0 mi Calm Calm - N/A   Clear
5:36 AM 32.0 °F - 28.4 °F 87% 30.09 in 10.0 mi Calm Calm - N/A   Clear
5:56 AM 33.8 °F - 30.2 °F 87% 30.09 in 10.0 mi Calm Calm - N/A   Clear
6:16 AM 32.0 °F - 28.4 °F 87% 30.09 in 10.0 mi Calm Calm - N/A   Clear
6:36 AM 33.8 °F - 30.2 °F 87% 30.09 in 10.0 mi Calm Calm - N/A   Clear
6:55 AM 35.6 °F 30.7 °F 30.2 °F 81% 30.10 in 10.0 mi ESE 5.8 mph - N/A   Clear
7:16 AM 37.4 °F 34.9 °F 30.2 °F 75% 30.09 in 10.0 mi NE 3.5 mph - N/A   Clear
7:36 AM 42.8 °F 41.1 °F 28.4 °F 57% 30.09 in 10.0 mi ESE 3.5 mph - N/A   Clear
7:56 AM 44.6 °F 42.2 °F 30.2 °F 57% 30.09 in 10.0 mi SE 4.6 mph - N/A   Clear
8:16 AM 50.0 °F - 28.4 °F 43% 30.09 in 10.0 mi Calm Calm - N/A   Clear
8:36 AM 50.0 °F - 28.4 °F 43% 30.09 in 10.0 mi SSE 3.5 mph - N/A   Clear
8:56 AM 50.0 °F - 28.4 °F 43% 30.09 in 10.0 mi Calm Calm - N/A   Clear
9:16 AM 50.0 °F - 28.4 °F 43% 30.08 in 10.0 mi Calm Calm - N/A   Clear
9:36 AM 53.6 °F - 28.4 °F 38% 30.08 in 10.0 mi ESE 3.5 mph - N/A   Clear
9:56 AM 55.4 °F - 28.4 °F 36% 30.07 in 10.0 mi West 5.8 mph - N/A   Clear
10:15 AM 55.4 °F - 28.4 °F 36% 30.07 in 10.0 mi WSW 11.5 mph 16.1 mph N/A   Mostly Cloudy
10:36 AM 55.4 °F - 28.4 °F 36% 30.06 in 10.0 mi West 15.0 mph 18.4 mph N/A   Mostly Cloudy
10:56 AM 55.4 °F - 26.6 °F 33% 30.05 in 10.0 mi WSW 8.1 mph 18.4 mph N/A   Scattered Clouds
11:16 AM 60.8 °F - 26.6 °F 27% 30.04 in 10.0 mi WSW 8.1 mph - N/A   Scattered Clouds
11:36 AM 60.8 °F - 28.4 °F 29% 30.02 in 10.0 mi WNW 10.4 mph 17.3 mph N/A   Scattered Clouds
11:56 AM 60.8 °F - 26.6 °F 27% 30.03 in 10.0 mi WSW 20.7 mph 26.5 mph N/A   Scattered Clouds
12:16 PM 57.2 °F - 30.2 °F 36% 30.03 in 10.0 mi WSW 5.8 mph 28.8 mph N/A   Mostly Cloudy
12:36 PM 59.0 °F - 30.2 °F 34% 30.01 in 10.0 mi NNW 3.5 mph - N/A   Mostly Cloudy
1:16 PM 62.6 °F - 24.8 °F 24% 29.99 in 10.0 mi South 4.6 mph - N/A   Mostly Cloudy
1:36 PM 60.8 °F - 23.0 °F 23% 29.98 in 10.0 mi North 3.5 mph - N/A   Mostly Cloudy
1:56 PM 60.8 °F - 23.0 °F 23% 29.97 in 10.0 mi WSW 10.4 mph 16.1 mph N/A   Mostly Cloudy
2:15 PM 68.0 °F - 23.0 °F 18% 29.97 in 10.0 mi SW 6.9 mph - N/A   Mostly Cloudy
2:35 PM 62.6 °F - 19.4 °F 19% 29.96 in 10.0 mi SSE 10.4 mph - N/A Thunderstorm Mostly Cloudy
2:56 PM 57.2 °F - 26.6 °F 31% 30.00 in 10.0 mi West 18.4 mph 38.0 mph N/A   Overcast
3:16 PM 53.6 °F - 32.0 °F 44% 30.03 in 10.0 mi West 15.0 mph 28.8 mph N/A Thunderstorm Mostly Cloudy
3:36 PM 51.8 °F - 33.8 °F 50% 30.02 in 10.0 mi West 12.7 mph 17.3 mph N/A Thunderstorm Mostly Cloudy
4:16 PM 53.6 °F - 32.0 °F 44% 30.04 in 10.0 mi SW 13.8 mph 18.4 mph N/A Thunderstorm Overcast
4:35 PM 50.0 °F - 37.4 °F 62% 30.04 in 10.0 mi WSW 9.2 mph - N/A Rain Rain
4:56 PM 51.8 °F - 35.6 °F 54% 30.03 in 10.0 mi NNE 3.5 mph - N/A   Mostly Cloudy
5:16 PM 51.8 °F - 35.6 °F 54% 30.04 in 10.0 mi NW 4.6 mph - N/A Rain Light Rain
5:36 PM 51.8 °F - 33.8 °F 50% 30.03 in 10.0 mi NNW 3.5 mph - N/A   Overcast
5:55 PM 50.0 °F - 35.6 °F 58% 30.04 in 10.0 mi North 4.6 mph - N/A Rain Light Rain
6:16 PM 48.2 °F - 41.0 °F 76% 30.04 in 10.0 mi South 10.4 mph - 0.03 in Rain Rain
6:36 PM 46.4 °F 44.3 °F 37.4 °F 71% 30.05 in 10.0 mi SSE 4.6 mph - 0.03 in   Overcast
6:55 PM 46.4 °F 43.5 °F 37.4 °F 71% 30.05 in 10.0 mi SW 5.8 mph - 0.03 in   Light Drizzle
7:16 PM 50.0 °F - 37.4 °F 62% 30.04 in 10.0 mi SSW 5.8 mph - N/A   Overcast
7:36 PM 46.4 °F 43.5 °F 35.6 °F 66% 30.04 in 10.0 mi South 5.8 mph - N/A   Overcast
8:16 PM 46.4 °F 43.5 °F 33.8 °F 62% 30.04 in 10.0 mi SSW 5.8 mph - N/A   Light Drizzle
8:35 PM 46.4 °F 40.7 °F 35.6 °F 66% 30.05 in 10.0 mi WSW 12.7 mph - N/A   Overcast
8:55 PM 44.6 °F 41.4 °F 33.8 °F 66% 30.05 in 10.0 mi West 5.8 mph - N/A   Mostly Cloudy
9:16 PM 42.8 °F - 33.8 °F 70% 30.06 in 10.0 mi Calm Calm - N/A   Mostly Cloudy
9:36 PM 44.6 °F - 33.8 °F 66% 30.06 in 10.0 mi Calm Calm - N/A   Overcast
10:16 PM 42.8 °F - 33.8 °F 70% 30.07 in 10.0 mi Calm Calm - N/A   Overcast
10:36 PM 42.8 °F 38.6 °F 32.0 °F 66% 30.07 in 10.0 mi West 6.9 mph - N/A   Mostly Cloudy
10:56 PM 42.8 °F - 32.0 °F 66% 30.07 in 10.0 mi Calm Calm - N/A   Mostly Cloudy
11:16 PM 42.8 °F - 32.0 °F 66% 30.06 in 10.0 mi Calm Calm - N/A   Overcast
11:36 PM 41.0 °F 39.0 °F 33.8 °F 76% 30.07 in 10.0 mi NW 3.5 mph - N/A   Overcast
11:56 PM 41.0 °F 37.1 °F 32.0 °F 70% 30.07 in 10.0 mi NNW 5.8 mph - N/A   Overcast